Location: Banios
(43.0451°N, 0.2335°E)
Time: 20:11:23
(UTC+00:00)

Cosmos 1602 Rocket - Pass Details

Date: 25 January 2021
Orbit: 604 x 632 km, 82.5° (Epoch: 02 March)

Event Time Altitude Azimuth Distance (km) Brightness Sun altitude
Exits shadow 05:41:21 - 348° (NNW) 2,462 6.4 -18.1°
Reaches altitude 10° 05:42:27 10° 347° (NNW) 2,017 6.0 -17.9°
Maximum altitude 05:46:54 68° 265° (W) 681 3.5 -17.1°
Drops below altitude 10° 05:51:19 10° 182° (S) 2,008 6.3 -16.4°
Sets 05:53:33 0° 180° (S) 2,911 7.2 -16.0°
